EST,Max TemperatureF,Mean TemperatureF,Min TemperatureF,Max Dew PointF,MeanDew PointF,Min DewpointF,Max Humidity, Mean Humidity, Min Humidity, Max Sea Level PressureIn, Mean Sea Level PressureIn, Min Sea Level PressureIn, Max VisibilityMiles, Mean VisibilityMiles, Min VisibilityMiles, Max Wind SpeedMPH, Mean Wind SpeedMPH, Max Gust SpeedMPH,PrecipitationIn, CloudCover, Events, WindDirDegrees
2012-12-1,37,27,19,36,31,18,100,98,93,30.33,30.09,29.81,10,4,1,22,13,24,0.08,8,,119
2012-12-2,39,37,35,39,37,36,100,98,93,30.07,29.89,29.75,10,4,0,10,5,,0.07,8,,248
2012-12-3,57,44,32,57,40,32,100,98,93,30.08,29.89,29.59,10,3,0,21,9,26,0.06,6,Thunderstorm,142
2012-12-4,55,40,24,55,35,21,100,89,70,30.07,29.85,29.61,10,9,3,24,11,37,0.00,5,,270
2012-12-5,30,24,17,27,20,14,100,85,68,30.40,30.29,30.08,10,9,2,16,7,22,0.01,4,,348
2012-12-6,35,29,23,36,28,21,100,88,75,30.25,29.99,29.79,10,10,4,17,10,22,0.03,7,,156
2012-12-7,35,32,30,36,29,25,100,84,70,30.00,29.92,29.79,10,9,5,15,7,20,0.00,8,,284
2012-12-8,30,27,24,27,25,21,100,89,74,30.18,30.03,29.96,10,9,3,8,3,,0.00,8,,350
2012-12-9,26,22,19,25,21,18,100,90,80,30.26,30.12,29.82,10,8,1,18,7,21,0.01,8,,70
2012-12-10,23,16,6,19,15,7,100,91,74,29.88,29.73,29.65,10,8,2,15,8,24,0.01,5,,6
2012-12-11,28,17,6,28,18,5,100,94,80,29.92,29.88,29.83,10,8,0,17,6,20,0.01,7,,140
2012-12-12,33,22,12,30,19,12,100,87,69,30.20,30.12,29.92,10,10,10,12,8,17,0.00,3,,210
2012-12-13,42,37,32,36,33,28,93,84,70,30.13,30.04,29.97,10,10,10,12,8,20,0.00,6,,211
2012-12-14,33,27,21,34,26,21,100,93,86,30.25,30.18,30.03,10,10,10,17,9,24,0.00,6,,317
2012-12-15,33,28,23,34,28,21,100,98,86,30.22,30.00,29.68,10,6,0,23,15,29,0.02,8,,97
2012-12-16,33,32,32,34,33,30,100,97,93,29.68,29.56,29.52,10,3,0,22,14,32,0.01,8,,90
2012-12-17,35,34,33,36,34,32,100,97,93,29.66,29.59,29.53,10,7,0,12,4,18,0.01,8,,246
2012-12-18,39,32,26,37,30,25,100,90,75,29.75,29.70,29.67,10,10,2,6,2,,0.00,6,,277
2012-12-19,39,30,24,36,28,25,100,93,70,30.08,29.95,29.75,10,9,0,9,4,,0.00,6,,203
2012-12-20,30,27,24,30,29,23,100,98,93,30.08,29.72,29.37,10,4,0,23,13,31,0.08,8,,69
2012-12-21,26,24,21,25,22,19,100,89,80,29.84,29.60,29.37,10,4,0,30,18,43,0.04,8,,338
2012-12-22,28,24,19,25,21,19,100,85,74,29.94,29.89,29.80,10,10,6,28,17,36,0.00,7,,284
2012-12-23,26,22,19,27,20,16,100,90,80,29.94,29.86,29.76,10,8,1,23,10,29,0.00,8,,278
2012-12-24,26,24,21,23,20,19,100,89,74,30.04,29.95,29.92,10,10,3,12,7,,0.00,8,,253
2012-12-25,26,24,21,25,20,18,100,89,80,30.38,30.25,30.04,10,9,2,9,4,,0.00,8,,263
2012-12-26,23,18,15,21,16,10,100,84,74,30.36,30.25,30.13,10,10,3,15,5,,0.00,4,,47
2012-12-27,24,17,8,16,11,7,92,77,63,30.16,30.13,30.09,10,10,10,13,7,,0.00,2,,352
2012-12-28,24,14,3,16,8,3,100,87,63,30.13,30.08,30.00,10,10,10,7,2,,0.00,2,,42
2012-12-29,24,16,8,21,15,7,100,93,86,29.99,29.93,29.87,10,10,2,10,4,,0.00,7,,335
2012-12-30,30,22,14,27,19,14,100,88,60,30.11,30.04,29.92,10,10,10,12,5,18,0.00,6,,226
2012-12-31,30,21,12,30,21,9,100,89,74,30.00,29.84,29.75,10,7,0,23,11,31,0.00,8,,267